Powrót do katalogu

ASIASAT 7

AktywnyŁącznośćGEO
NORAD 37933·PAYLOAD·🇸🇭 SH

Wystrzelony Nov 25, 2011 z Baikonur Cosmodrome

Loading…

TLE

ŚwieżeSource: Space-Track

Epoka: Sep 14, 2026, 14:18 UTC

1 37933U 11069A   26257.59598777  .00000000  00000-0  00000-0 0  9991
2 37933   0.0182 161.7588 0001476 343.2272 168.6319  1.00266918 45753

Śledź ASIASAT 7 w czasie rzeczywistym z AllMySat

Download on the App Store